Starlink 11661

operational
NORAD ID: 63676 Int'l Des: 2025-085 Owner: SPXS Country: US Constellation: starlink
LEOCIRCULAR

Über Starlink 11661

Beschreibung wird geladen...

Live-Position

3D-Globus wird geladen...

Nächste Überflüge

Höhenverlauf

Altitude vs Time

uPlot chart will show altitude changes over time

Zweizeiliger Elementsatz

1 63676U 25085N 26036.25391573 .00249277 00000-0 18806-2 0 9996
2 63676 42.9983 113.6473 0001210 273.4570 86.6159 15.70939523 45796
Epoch: 5. Feb. 2026 • Age: 8 hours

Aktueller Status

Höhe 356.5 km
Geschwindigkeit 7.70 km/s
Subsatellitenpunkt -6.23°S, 55.4°W
Startdatum 28. Apr. 2025
Alter 0.7 years
Typ internet

Technische Details

Klassifizierung Payload
Masse 960.00 kg
Trockenmasse 910.00 kg
Gesamtmasse 960.00 kg
Länge 0.30 m
Durchmesser 4.10 m
Spannweite 29.00 m
Form Box + pan
Hersteller SPXS
Bus-Typ Starlink V2MD
Phasenstatus In Orbit
Besitzer/Staat SPXS/US

Große Konstellationen

Loading constellations...